• In Czech Republic
  • List of Countries
  • For 7 days
  • Water Temperature
  • Satellite Maps
  • Weather Map
  • Weather Widgets
  • user-avatar
    Login

    Hourly Weather Dzierwany

    Today, 20 September, Thursday

    Time Temperature Precipitation Wind Pressure Humidity
    00:00 +15°C° 0 mm 1 mps 740 mmHg 89%
    01:00 +15°C° 0 mm 1 mps 740 mmHg 88%
    02:00 +15°C° 0 mm 1 mps 740 mmHg 89%
    03:00 +15°C° 0 mm 1 mps 740 mmHg 89%
    04:00 +15°C° 0 mm 1 mps 740 mmHg 90%
    05:00 +15°C° 0 mm 1 mps 740 mmHg 90%
    06:00 +16°C° 0 mm 1 mps 740 mmHg 87%
    07:00 +17°C° 0 mm 2 mps 740 mmHg 84%
    08:00 +17°C° 0 mm 2 mps 740 mmHg 79%
    09:00 +19°C° 0 mm 2 mps 740 mmHg 72%
    10:00 +23°C° 0 mm 2 mps 740 mmHg 64%
    11:00 +25°C° 0 mm 3 mps 740 mmHg 57%
    12:00 +26°C° 0 mm 3 mps 740 mmHg 54%
    13:00 +27°C° 0 mm 3 mps 740 mmHg 51%
    14:00 +28°C° 0 mm 4 mps 740 mmHg 47%
    15:00 +27°C° 0 mm 3 mps 740 mmHg 51%
    16:00 +27°C° 0 mm 2 mps 740 mmHg 54%
    17:00 +26°C° 0 mm 2 mps 739 mmHg 57%
    18:00 +25°C° 0 mm 2 mps 739 mmHg 62%
    19:00 +23°C° 0 mm 2 mps 739 mmHg 66%
    20:00 +20°C° 0 mm 2 mps 739 mmHg 70%
    21:00 +20°C° 0 mm 3 mps 739 mmHg 71%
    22:00 +19°C° 0 mm 3 mps 739 mmHg 71%
    23:00 +19°C° 0 mm 3 mps 739 mmHg 72%

    Tomorrow, 21 September, Friday

    Time Temperature Precipitation Wind Pressure Humidity
    00:00 +18°C° 0 mm 3 mps 739 mmHg 74%
    01:00 +18°C° 0 mm 2 mps 739 mmHg 76%
    02:00 +17°C° 0 mm 2 mps 739 mmHg 78%
    03:00 +17°C° 0 mm 2 mps 739 mmHg 78%
    04:00 +17°C° 0 mm 3 mps 738 mmHg 78%
    05:00 +17°C° 0 mm 3 mps 738 mmHg 79%
    06:00 +17°C° 0 mm 3 mps 738 mmHg 76%
    07:00 +18°C° 0 mm 3 mps 738 mmHg 73%
    08:00 +19°C° 0 mm 4 mps 738 mmHg 70%
    09:00 +20°C° 0 mm 4 mps 738 mmHg 64%
    10:00 +22°C° 0 mm 5 mps 738 mmHg 58%
    11:00 +25°C° 0 mm 5 mps 738 mmHg 53%
    12:00 +26°C° 0 mm 5 mps 737 mmHg 50%
    13:00 +26°C° 0 mm 6 mps 737 mmHg 46%
    14:00 +27°C° 0 mm 6 mps 736 mmHg 43%
    15:00 +26°C° 0 mm 6 mps 736 mmHg 46%
    16:00 +25°C° 0 mm 5 mps 735 mmHg 49%
    17:00 +23°C° 0 mm 5 mps 735 mmHg 52%
    18:00 +22°C° 0 mm 5 mps 734 mmHg 52%
    19:00 +21°C° 0 mm 5 mps 733 mmHg 52%
    20:00 +20°C° 0 mm 6 mps 733 mmHg 52%
    21:00 +20°C° 0 mm 6 mps 732 mmHg 53%
    22:00 +20°C° 0 mm 6 mps 732 mmHg 54%
    23:00 +20°C° 0 mm 7 mps 731 mmHg 56%

    Day after tomorrow, 22 September, Saturday

    Time Temperature Precipitation Wind Pressure Humidity
    00:00 +19°C° 0.1 mm 6 mps 732 mmHg 60%
    01:00 +17°C° 0.1 mm 6 mps 732 mmHg 64%
    02:00 +17°C° 0.1 mm 6 mps 732 mmHg 68%
    03:00 +15°C° 1.1 mm 6 mps 732 mmHg 74%
    04:00 +13°C° 1.1 mm 6 mps 733 mmHg 81%
    05:00 +10°C° 1.1 mm 5 mps 733 mmHg 87%
    06:00 +10°C° 0.1 mm 5 mps 734 mmHg 85%
    07:00 +10°C° 0.1 mm 5 mps 735 mmHg 82%
    08:00 +9°C° 0.1 mm 5 mps 735 mmHg 79%
    09:00 +10°C° 0 mm 6 mps 736 mmHg 74%
    10:00 +10°C° 0 mm 6 mps 736 mmHg 69%
    11:00 +11°C° 0 mm 6 mps 736 mmHg 64%
    12:00 +13°C° 0 mm 6 mps 736 mmHg 61%
    13:00 +13°C° 0 mm 6 mps 736 mmHg 57%
    14:00 +14°C° 0 mm 5 mps 737 mmHg 54%
    15:00 +14°C° 0.3 mm 5 mps 737 mmHg 57%
    16:00 +14°C° 0.3 mm 4 mps 736 mmHg 60%
    17:00 +13°C° 0.3 mm 4 mps 736 mmHg 63%
    18:00 +12°C° 0.1 mm 4 mps 736 mmHg 68%
    19:00 +11°C° 0.1 mm 3 mps 737 mmHg 73%
    20:00 +9°C° 0.1 mm 3 mps 737 mmHg 78%
    21:00 +9°C° 0 mm 3 mps 736 mmHg 79%
    22:00 +8°C° 0 mm 4 mps 736 mmHg 79%
    23:00 +8°C° 0 mm 4 mps 736 mmHg 80%

    23 September, Sunday

    Time Temperature Precipitation Wind Pressure Humidity
    00:00 +7°C° 0 mm 4 mps 736 mmHg 81%
    01:00 +7°C° 0 mm 4 mps 736 mmHg 82%
    02:00 +7°C° 0 mm 4 mps 736 mmHg 82%
    03:00 +7°C° 0 mm 5 mps 736 mmHg 83%
    04:00 +7°C° 0 mm 5 mps 736 mmHg 84%
    05:00 +7°C° 0 mm 5 mps 736 mmHg 84%
    06:00 +7°C° 0 mm 5 mps 736 mmHg 82%
    07:00 +7°C° 0 mm 6 mps 736 mmHg 80%
    08:00 +8°C° 0 mm 6 mps 736 mmHg 78%
    09:00 +9°C° 0 mm 6 mps 736 mmHg 73%
    10:00 +10°C° 0 mm 6 mps 736 mmHg 67%
    11:00 +13°C° 0 mm 6 mps 736 mmHg 62%
    12:00 +13°C° 0.1 mm 6 mps 736 mmHg 59%
    13:00 +14°C° 0.1 mm 6 mps 735 mmHg 55%
    14:00 +14°C° 0.1 mm 6 mps 735 mmHg 52%
    15:00 +14°C° 0 mm 5 mps 735 mmHg 54%
    16:00 +13°C° 0 mm 4 mps 734 mmHg 56%
    17:00 +13°C° 0 mm 3 mps 734 mmHg 58%
    18:00 +11°C° 0.3 mm 3 mps 733 mmHg 66%
    19:00 +10°C° 0.3 mm 3 mps 733 mmHg 75%
    20:00 +9°C° 0.3 mm 3 mps 732 mmHg 83%
    21:00 +9°C° 0.8 mm 3 mps 731 mmHg 86%
    22:00 +9°C° 0.8 mm 3 mps 730 mmHg 90%
    23:00 +7°C° 0.8 mm 4 mps 729 mmHg 93%

    24 September, Monday

    Time Temperature Precipitation Wind Pressure Humidity
    00:00 +8°C° 1.7 mm 4 mps 727 mmHg 93%
    01:00 +8°C° 1.7 mm 5 mps 725 mmHg 93%
    02:00 +8°C° 1.7 mm 6 mps 724 mmHg 93%
    03:00 +9°C° 1.4 mm 5 mps 722 mmHg 94%
    04:00 +10°C° 1.4 mm 5 mps 721 mmHg 95%
    05:00 +12°C° 1.4 mm 4 mps 720 mmHg 95%
    06:00 +10°C° 0.8 mm 5 mps 720 mmHg 94%
    07:00 +10°C° 0.8 mm 6 mps 720 mmHg 93%
    08:00 +9°C° 0.8 mm 6 mps 720 mmHg 92%
    09:00 +7°C° 0.7 mm 8 mps 721 mmHg 90%
    10:00 +6°C° 0.7 mm 9 mps 722 mmHg 89%
    11:00 +5°C° 0.7 mm 10 mps 723 mmHg 87%
    12:00 +7°C° 0.2 mm 9 mps 724 mmHg 80%
    13:00 +8°C° 0.2 mm 9 mps 726 mmHg 74%
    14:00 +10°C° 0.2 mm 8 mps 727 mmHg 67%
    15:00 +9°C° 0.4 mm 8 mps 729 mmHg 70%
    16:00 +9°C° 0.4 mm 7 mps 730 mmHg 73%
    17:00 +8°C° 0.4 mm 7 mps 732 mmHg 76%
    18:00 +6°C° 0.4 mm 7 mps 733 mmHg 78%
    19:00 +6°C° 0.4 mm 7 mps 734 mmHg 81%
    20:00 +5°C° 0.4 mm 7 mps 735 mmHg 83%
    21:00 +4°C° 0.1 mm 7 mps 736 mmHg 83%
    22:00 +4°C° 0.1 mm 6 mps 736 mmHg 82%
    23:00 +3°C° 0.1 mm 5 mps 737 mmHg 82%

    25 September, Tuesday

    Time Temperature Precipitation Wind Pressure Humidity
    00:00 +3°C° 0 mm 5 mps 738 mmHg 82%
    01:00 +2°C° 0 mm 5 mps 738 mmHg 82%
    02:00 +3°C° 0 mm 4 mps 739 mmHg 82%
    03:00 +3°C° 0 mm 4 mps 739 mmHg 83%
    04:00 +3°C° 0 mm 4 mps 740 mmHg 83%
    05:00 +3°C° 0 mm 4 mps 740 mmHg 83%
    06:00 +3°C° 0 mm 4 mps 740 mmHg 81%
    07:00 +3°C° 0 mm 5 mps 741 mmHg 79%
    08:00 +5°C° 0 mm 5 mps 741 mmHg 77%
    09:00 +5°C° 0.2 mm 6 mps 741 mmHg 73%
    10:00 +7°C° 0.2 mm 6 mps 741 mmHg 68%
    11:00 +9°C° 0.2 mm 7 mps 741 mmHg 63%
    12:00 +9°C° 0.2 mm 7 mps 741 mmHg 62%
    13:00 +10°C° 0.2 mm 6 mps 740 mmHg 61%
    14:00 +10°C° 0.2 mm 6 mps 739 mmHg 60%
    15:00 +9°C° 0.5 mm 6 mps 739 mmHg 67%
    16:00 +8°C° 0.5 mm 5 mps 738 mmHg 74%
    17:00 +7°C° 0.5 mm 5 mps 738 mmHg 81%
    18:00 +6°C° 0.4 mm 4 mps 738 mmHg 84%
    19:00 +6°C° 0.4 mm 4 mps 738 mmHg 87%
    20:00 +5°C° 0.4 mm 4 mps 738 mmHg 91%
    21:00 +5°C° 0 mm 4 mps 739 mmHg 91%
    22:00 +5°C° 0 mm 4 mps 739 mmHg 91%
    23:00 +4°C° 0 mm 3 mps 740 mmHg 92%
    Show more